Regional Weather Roundup
Issued by NWS

Home | Current Version | Previous Version | Text Only | Print | Product List | Glossary On
Versions: 1 2 3 4 5 6 7 8 9 10 11 12 13 14 15 16 17 18 19 20 21 22 23 24 25 26 27 28 29 30 31 32 33 34 35 36 37 38 39 40 41 42 43 44 45 46 47 48 49 50
000
ASUS43 KMKX 160700
RWRWI

WISCONSIN REGIONAL WEATHER ROUNDUP
NATIONAL WEATHER SERVICE MILWAUKEE/SULLIVAN WI
200 AM CDT TUE SEP 16 2014

NOTE: "FAIR" INDICATES FEW OR NO CLOUDS BELOW 12,000 FEET WITH NO
SIGNIFICANT WEATHER AND/OR OBSTRUCTIONS TO VISIBILITY.

WIZ001-002-006>008-014>016-023>028-160800-
NORTHWEST WISCONSIN

CITY           SKY/WX    TMP DP  RH WIND       PRES   REMARKS
SUPERIOR ARPT  CLEAR     41  37  84 SW9       30.14F
ASHLAND        CLEAR     42  37  82 SW8       30.15S
HAYWARD        CLEAR     35  33  92 CALM      30.17F
SIREN          CLEAR     36  34  93 CALM      30.18S
RICE LAKE      CLEAR     38  37  97 CALM      30.21S
LADYSMITH      CLEAR     37  36  95 CALM      30.20S
EAU CLAIRE     CLEAR     42  39  89 SW3       30.20S
MENOMONIE      SUNNY     42  40  91 CALM      30.21S
NEW RICHMOND   CLEAR     39  39 100 CALM      30.21S
OSCEOLA        CLEAR     39  39 100 CALM      30.22F
$$

WIZ003>005-009-010-017-018-160800-
NORTH CENTRAL WISCONSIN

CITY           SKY/WX    TMP DP  RH WIND       PRES   REMARKS
WOODRUFF       CLEAR     38  35  91 CALM      30.15S
RHINELANDER    CLEAR     34  32  92 W8        30.17R WCI  27
EAGLE RIVER      N/A     31  31 100 SW5       30.14S FOG     WCI  27
LAND O LAKES   CLEAR     31  31 100 CALM      30.15R
PHILLIPS       CLEAR     37  35  92 CALM      30.16S
TOMAHAWK       CLEAR     33  32  96 CALM      30.18S
MEDFORD        CLEAR     35  34  98 CALM      30.18S
MERRILL        MOCLDY    34  34  99 CALM      30.18S
$$

WIZ029-030-035-036-043>047-160800-
CENTRAL WISCONSIN

CITY           SKY/WX    TMP DP  RH WIND       PRES   REMARKS
WAUSAU         CLEAR     40  38  93 CALM      30.17F
MOSINEE        CLEAR     37  37 100 W3        30.19S
MARSHFIELD     CLEAR     40  37  89 W5        30.19S
STEVENS POINT  CLEAR     35  34  96 CALM      30.20R
WAUPACA        CLEAR     43  41  93 CALM      30.19S
WAUTOMA        NOT AVBL
WISC RAPIDS    CLEAR     38  37  97 CALM      30.21S
CAMP DOUGLAS   CLEAR     37  37 100 CALM      30.21S FOG
$$

WIZ011>013-019>022-031-037>040-048>050-160800-
NORTHEAST WISCONSIN

CITY           SKY/WX    TMP DP  RH WIND       PRES   REMARKS
ANTIGO         CLEAR     35  34  96 CALM      30.17S
STURGEON BAY   CLEAR     48  39  71 NW5       30.16R
GREEN BAY      CLEAR     41  40  96 CALM      30.18R
MANITOWOC      NOT AVBL
APPLETON       CLEAR     43  37  81 W8        30.19R
CLINTONVILLE   CLEAR     41  37  87 W5        30.19R
OSHKOSH        CLEAR     45  42  89 W3        30.18S
$$

WIZ032>034-041-042-053>061-160800-
SOUTHWEST WISCONSIN

CITY           SKY/WX    TMP DP  RH WIND       PRES   REMARKS
LA CROSSE      CLEAR     46  43  89 SE5       30.22S
SPARTA         CLEAR     35  35 100 CALM      30.23S
VIROQUA        FAIR      42  42 100 CALM      30.22S
BOSCOBEL       FOG       46  44  93 S3        30.24R VSB 1/4
PRAIRIE DU CHI FOG       44  43  95 N3        30.24S VSB 1/4
PLATTEVILLE    FAIR      44  43  96 CALM      30.24R
$$

WIZ056-057-062-063-064-067-068-160800-
SOUTH CENTRAL WISCONSIN

CITY           SKY/WX    TMP DP  RH WIND       PRES   REMARKS
BARABOO/DELLS  CLEAR     40  39  95 CALM      30.21S
LONE ROCK      NOT AVBL
WATERTOWN      CLEAR     44  44  99 CALM      30.19R
MADISON        CLEAR     41  39  93 CALM      30.21R
MIDDLETON      FAIR      42  41  99 CALM      30.21S
MONROE         CLEAR     46  43  87 NW9       30.21R
JANESVILLE     CLEAR     43  41  93 NW5       30.19S
$$

WIZ051-052-058>065-066-070>072-160800-
SOUTHEAST WISCONSIN

CITY           SKY/WX    TMP DP  RH WIND       PRES   REMARKS
MILWAUKEE      CLEAR     49  45  86 W6        30.17F
WAUKESHA       CLEAR     43  43 100 W6        30.18S
MILWAUKEE/TIMM CLEAR     45  41  87 CALM      30.18S
RACINE         CLEAR     47  44  90 W6        30.19S
BURLINGTON     CLEAR     41  41 100 CALM      30.18S
KENOSHA        CLEAR     45  44  97 W7        30.18S
FOND DU LAC    CLEAR     45  41  86 W6        30.19S
SHEBOYGAN      CLEAR     46  42  86 NW5       30.17R
WEST BEND      CLEAR     45  43  93 CALM      30.17F
JUNEAU         CLEAR     44  42  94 NW3       30.20R
$$

LSZ147-162-160800-
LAKE SUPERIOR

STATION/POSITION TIME  TEMP    WIND        PRES    WAVE
                       AIR SEA DIR/SP/G            HT/PER
                 (UTC) (F)     (DEG/KT/KT) (MB)    (FT/S)
W MID LAKE BUOY  0550   50 47  250/ 12/ 14 1019.0F   2/ 4
DEVILS ISLAND    0600   50     230/ 13/ 16 1020.0F
PORT WING        0600   47     190/  6/  9 1020.3
SAXON HARBOR     0600   46     190/  7/ 11 1020.7S
$$

LMZ867-665-643>646-160800-
LAKE MICHIGAN

STATION/POSITION TIME  TEMP    WIND        PRES    WAVE
                       AIR SEA DIR/SP/G            HT/PER
                 (UTC) (F)     (DEG/KT/KT) (MB)    (FT/S)
N MID LAKE BUOY  0550   55 58  350/ 10/ 12 1020.2R   1/ 3
NORTHPORT PIER   0600   55     310/  7/ 11 1020.3S
KEWAUNEE LAKESHO 0500                      1019.5
SHEBOYGAN LAKESH 0600   50 51  290/ 11/ 13 1021.8R
PORT WASHINGTON  0600   50     290/  6/ 10 1022.0R
ATWATER BUOY     0600   52     260/ 14/ 16 1022.3R
MILWAUKEE LAKESH 0600   51     290/  9/ 11   N/A
S MID LAKE BUOY  0550   58 64  340/  8/ 10 1021.3R   1/ 3
KENOSHA   LAKESH 0600   50     290/ 10/ 13 1021.7R
$$

TC  - TEMPERATURE IN CELSIUS
VSB - VISIBILITY IN STATUTE MILES
WCI - WIND CHILL INDEX
HX  - HEAT INDEX




USA.gov is the U.S. government's official web portal to all federal, state and local government web resources and services.